This is the latest recevied weather packets stored in our database for station/object KO6LQJ. If no packets are shown the sender has not sent any weather packets the latest 10 day(s).
| Time | Temp. | Humidity | Pressure | Rain* | Wind** | Luminosity | Snow |
|---|---|---|---|---|---|---|---|
| 1777931752 | 19.44° C | 49% | 1017.3 hPa | 0 mm | - | 278 W/m² | - |
| 1777931449 | 19.44° C | 50% | 1017.3 hPa | 0 mm | - | 343 W/m² | - |
| 1777931145 | 19.44° C | 52% | 1017.2 hPa | 0 mm | - | 325 W/m² | - |
| 1777930842 | 18.89° C | 52% | 1017.2 hPa | 0 mm | - | 298 W/m² | - |
| 1777930538 | 20° C | 49% | 1017.2 hPa | 0 mm | - | 376 W/m² | - |
| 1777930235 | 19.44° C | 49% | 1017.3 hPa | 0 mm | - | 378 W/m² | - |
| 1777929931 | 19.44° C | 48% | 1017.3 hPa | 0 mm | - | 343 W/m² | - |
| 1777929629 | 19.44° C | 47% | 1017.2 hPa | 0 mm | - | 337 W/m² | - |
| 1777929325 | 19.44° C | 47% | 1017.3 hPa | 0 mm | - | 283 W/m² | - |
| 1777929022 | 20° C | 46% | 1017.1 hPa | 0 mm | - | 453 W/m² | - |
| 1777928719 | 20.56° C | 45% | 1017 hPa | 0 mm | - | 300 W/m² | - |
| 1777928416 | 20° C | 44% | 1017 hPa | 0 mm | - | 387 W/m² | - |
| 1777928114 | 20° C | 46% | 1016.9 hPa | 0 mm | - | 391 W/m² | - |
| 1777927812 | 19.44° C | 45% | 1016.9 hPa | 0 mm | - | 225 W/m² | - |
| 1777927510 | 20° C | 45% | 1017.1 hPa | 0 mm | - | 230 W/m² | - |
| 1777927208 | 20° C | 45% | 1017 hPa | 0 mm | - | 283 W/m² | - |
| 1777926906 | 20° C | 45% | 1017 hPa | 0 mm | - | 241 W/m² | - |
| 1777926602 | 20° C | 47% | 1017 hPa | 0 mm | - | 244 W/m² | - |
| 1777926298 | 20° C | 47% | 1017 hPa | 0 mm | - | 252 W/m² | - |
| 1777925995 | 20° C | 46% | 1017.2 hPa | 0 mm | - | 293 W/m² | - |
| 1777925693 | 20° C | 47% | 1017.1 hPa | 0 mm | - | 326 W/m² | - |
| 1777925390 | 20° C | 47% | 1017 hPa | 0 mm | - | 233 W/m² | - |
| 1777925087 | 21.11° C | 46% | 1017 hPa | 0 mm | - | 330 W/m² | - |
| 1777924783 | 20.56° C | 46% | 1017.3 hPa | 0 mm | - | 540 W/m² | - |
| 1777924479 | 20.56° C | 46% | 1017.1 hPa | 0 mm | - | 411 W/m² | - |
* Rain latest hour (hover to see other rain measurements)
** Current wind speed in m/s (hover to see current wind gust speed)